Home > Time Zones > World Clock > Weather > Iran > Gorgan > Past weeks

Flag for Iran Weather past 2 weeks in Gorgan, Iran

Now
48 °F

Passing clouds.


Feels Like: 46 °F
Forecast: 45 / 73 °F
Wind: 5 mph from South

Location: Gorgan Airport

Current Time: Apr 26, 2015 at 12:29:23 AM

Latest Report: Apr 25, 2015 at 11:30 PM


Visibility: N/A

Pressure: 30.30 "Hg

Humidity: 94%

Dew point: 46 °F

Location of GorganLocation

Historic Weather in Gorgan — Graph

°F

Gorgan temperature yesterday

Maximum temperature yesterday: 59 °F (at 4:30 PM)
Minimum temperature yesterday: 48 °F (at 10:30 PM)
Average temperature yesterday: 54 °F

Past Weeks' High & Low Weather Summary

 TemperatureHumidityPressure
High91 °F (Apr 19, 3:30 PM)100% (Apr 11, 8:00 AM)30.30 "Hg (Apr 11, 8:00 AM)
Low41 °F (Apr 15, 6:30 AM)17% (Apr 19, 3:30 PM)29.62 "Hg (Apr 22, 4:30 AM)
Average59 °F81%30.01 "Hg
* Reported Apr 10 10:30 PM — Apr 25 10:30 PM, Gorgan, Weather by CustomWeather, © 2015

Note: Actual official high and low records may vary slightly from our data, if they occured in-between our weather recording intervals... More about our weather records

Advertising

Gorgan weather history for previous 24 hours

 ConditionsComfort  
Time TempWeatherWind HumidityBarometerVisibility
10:30 PM
Sat, Apr 25
48 °FPassing clouds.No wind94%30.30 "HgN/A
9:30 PM50 °FPassing clouds.5 mph94%30.30 "HgN/A
8:30 PM52 °FBroken clouds.9 mph88%30.30 "HgN/A
7:30 PM55 °FScattered clouds.7 mph77%30.27 "HgN/A
6:30 PM57 °FPartly sunny.12 mph72%30.27 "HgN/A
5:30 PM59 °FBroken clouds.9 mph68%30.27 "HgN/A
4:30 PM59 °FBroken clouds.12 mph68%30.24 "HgN/A
3:30 PM55 °FBroken clouds.12 mph77%30.27 "HgN/A
2:30 PM55 °FMostly cloudy.18 mph82%30.27 "HgN/A
1:30 PM54 °FMostly cloudy.16 mph88%30.27 "Hg4 mi
12:30 PM52 °FLight rain. Fog.12 mph94%30.24 "Hg2 mi
11:30 AM54 °FDrizzle. Fog.12 mph88%30.24 "Hg2 mi
11:00 AM54 °FFog.14 mph88%30.21 "Hg2 mi
10:30 AM54 °FMostly cloudy.14 mph94%30.21 "HgN/A
9:30 AM54 °FMostly cloudy.16 mph94%30.18 "HgN/A
8:30 AM54 °FMostly cloudy.14 mph88%30.15 "HgN/A
7:30 AM52 °FMostly cloudy.14 mph94%30.15 "Hg4 mi
6:30 AM52 °FDrizzle. Fog.18 mph94%30.12 "Hg2 mi
5:30 AM52 °FLight rain. Fog.16 mph100%30.12 "Hg2 mi
4:30 AM52 °FLight rain. Fog.14 mph100%30.09 "Hg2 mi
3:30 AM52 °FDrizzle. Fog.12 mph94%30.07 "Hg2 mi
2:30 AM54 °FFog.14 mph94%30.07 "Hg2 mi
1:30 AM54 °FLight rain. Fog.18 mph100%30.07 "Hg2 mi
12:30 AM54 °FLight rain. Fog.21 mph100%30.04 "Hg2 mi
Weather by CustomWeather, © 2015

See weather overviewHow to use our weather pages